sat.trackr.live / text

‹ back to catalog

STARLINK-34832

NORAD 65475 · 2025-195T

PAYLOAD ACTIVE UNKNOWN

§ Identity

Operator
Country
US
Launch date
2025-09-03
Launch site
AFETR
Launch vehicle
Mass (kg)
RCS (m²)

Purposes: comms

External: N2YO · Heavens-Above · Gunter

§ Orbital elements

Epoch: 2026-05-24T19:24:42.507648Z

Period
93.85 min
Inclination
53.1591°
Eccentricity
0.0000486
Mean motion
15.34420145 rev/d
Perigee alt
462.3 km
Apogee alt
463.0 km
Semi-major
6,840.8 km
B*
1.0710e-3
RAAN
264.2074°
Arg perigee
92.2258°
Mean anomaly
267.8800°
Rev number
4,163

§ Raw data

STARLINK-348321 65475U 25195T   26144.80882532  .00036006  00000+0  10710-2 0  99972 65475  53.1591 264.2074 0000486  92.2258 267.8800 15.34420145 41638

JSON: /api/v1/satellites/65475 · /tle

For live sub-satellite position, see the globe view (requires WebGL).

§ Visibility from observer

Set your observer location to see the next 7 days of passes ≥ 10°. The values pass through the URL so the page stays shareable.

No JS? Fill the form by hand. The geolocation button needs JavaScript.